阿斯特拉 4A星 (ASTRA 4A)

导读 | 豆包AI

ASTRA 4A(原称SIRIUS 4)由SES公司于2007年11月17日发射,是一颗地球静止轨道通信卫星。它主要承担欧洲及周边区域的电视广播、宽带通信与多媒体传输服务,配备多频段转发器,信号覆盖北欧、中东及部分非洲地区,为用户提供稳定的高清电视信号传输和互联网接入支持,是SES Astra卫星星座中重要的容量补充节点,长期保障区域通信广播服务稳定运行。

Basic Information
目录编号:
32299
目录名称:
ASTRA 4A (SIRIUS 4)
国际标识:
2007-057A
轨道中心:
EARTH
卫星名称:
阿斯特拉 4A星
卫星全名:
阿斯特拉 4A星 (ASTRA 4A)
卫星状态:
在轨 (已飞行6692 天)
发射日期:
2007-11-17 UTC
国别 :
(SES)
星等 :
--
Orbit Information
数据来源 国际轨道数据 AOE轨道数据
星历时间 2026-03-14T07:04:39+0800
5小时前
查看轨道信息
2026-03-13T12:00:00+0800
1天前
查看轨道信息
半长轴 42164.392km 42164.42km
偏心率 0.0002418 0.0002483
轨道倾角 0.034° 0.037°
近地点辐角 70.522° 68.781°
升交点赤经 293.387° 294.953°
平近点角 158.635° 231.861°
近地点 35776.059km 35775.813km
远地点 35796.451km 35796.753km
周期 1436.080分钟 1436.081分钟
每日圈数 1.00273 1.002729
Detailed Information
卫星平台:
A2100AX
平衡模式:
三轴稳定
覆盖范围:
全球
运营商:
欧洲卫星公司
运营商所在国:
卢森堡
制造商(研发单位):
洛克希德·马丁公司
制造商所在国:
美国
使用方式:
暂无
Satellite Introduction
阿斯特拉卫星是由SES阿斯特拉运营的商业通信卫星,主要提供电视直播到户业务。Astra卫星包括三个系列共19颗卫星,分别定点在三个不同轨位:Astra-1系列包括十三颗卫星,定点东经19.2度;Astra-2系列包括4颗卫星,定点东经28.2度;Astra-3系列包括2颗卫星,定点东经23.5度。该卫星仍在工作。
2D Orbit Map
3D Orbit Map
Orbit Altitude Analysis Chart
Orbit Inclination Analysis Chart
Orbit Comprehensive Analysis Chart
View Comprehensive Chart